Location: Black Swamp Observatory
(41.3920°N, 84.1250°W)
Time: 12:22:17
(UTC-04:00)

Vanguard 2 - Pass Details

Date: 03 February 2022
Orbit: 552 x 2935 km, 32.9° (Epoch: 24 May)

Event Time Altitude Azimuth Distance (km) Brightness Sun altitude
Rises 18:29:53 0° 235° (SW) 3,002 12.2 -7.0°
Reaches altitude 10° 18:32:05 10° 225° (SW) 2,255 11.0 -7.4°
Maximum altitude 18:36:46 34° 161° (SSE) 1,538 9.0 -8.2°
Drops below altitude 10° 18:43:47 10° 100° (E) 3,420 10.3 -9.5°
Enters shadow 18:44:28 - 99° (E) 3,653 10.4 -9.6°
